CST,Max TemperatureF,Mean TemperatureF,Min TemperatureF,Max Dew PointF,MeanDew PointF,Min DewpointF,Max Humidity, Mean Humidity, Min Humidity, Max Sea Level PressureIn, Mean Sea Level PressureIn, Min Sea Level PressureIn, Max VisibilityMiles, Mean VisibilityMiles, Min VisibilityMiles, Max Wind SpeedMPH, Mean Wind SpeedMPH, Max Gust SpeedMPH,PrecipitationIn, CloudCover, Events, WindDirDegrees
2012-11-1,,,,,,,,,,,,,,,,,,,,,,
2012-11-2,,,,,,,,,,,,,,,,,,,,,,
2012-11-3,,,,,,,,,,,,,,,,,,,,,,
2012-11-4,,,,,,,,,,,,,,,,,,,,,,
2012-11-5,,,,,,,,,,,,,,,,,,,,,,
2012-11-6,70,56,41,43,39,34,76,53,37,30.18,30.14,30.09,10,10,10,18,9,24,0.00,0,,358
2012-11-7,70,52,35,40,36,32,87,55,32,30.22,30.12,30.01,10,10,10,12,4,16,0.00,0,,154
2012-11-8,78,64,51,57,48,36,62,54,41,30.01,29.90,29.82,10,10,10,24,14,31,0.00,0,,175
2012-11-9,79,70,61,60,57,53,78,63,50,29.87,29.82,29.76,10,10,10,24,16,31,0.00,0,,181
2012-11-10,77,70,62,61,59,57,87,70,57,29.85,29.73,29.65,10,10,10,29,19,41,0.00,2,,176
2012-11-11,69,48,28,60,37,26,100,81,63,30.31,30.01,29.69,10,10,5,21,12,31,0.13,4,Rain-Thunderstorm,341
2012-11-12,52,38,24,31,27,24,100,69,37,30.49,30.42,30.32,10,10,7,10,3,10,0.00,0,,215
2012-11-13,54,42,29,31,28,25,88,59,31,30.46,30.38,30.28,10,10,10,20,6,26,0.00,0,,187
2012-11-14,60,47,34,34,30,28,79,55,35,30.34,30.28,30.21,10,10,10,16,8,20,0.00,0,,190
2012-11-15,62,50,38,45,37,30,100,64,44,30.35,30.24,30.20,10,10,10,13,7,16,0.00,0,,163
2012-11-16,61,46,32,44,37,32,100,71,40,30.42,30.37,30.32,10,10,7,9,3,,0.00,0,,144
2012-11-17,63,51,39,38,35,33,78,58,39,30.34,30.28,30.22,10,10,10,20,8,28,0.00,0,,165
2012-11-18,65,56,46,46,39,33,63,52,42,30.21,30.14,30.07,10,10,10,23,13,32,0.00,2,,174
2012-11-19,71,58,45,56,51,43,100,76,56,30.17,30.12,30.07,10,10,10,14,7,17,0.00,0,,203
2012-11-20,72,56,39,53,47,40,100,79,44,30.26,30.21,30.16,10,9,3,8,4,,0.00,0,,11
2012-11-21,75,58,42,56,49,42,100,70,36,30.23,30.14,29.99,10,10,7,22,7,31,0.00,0,,183
2012-11-22,77,64,52,54,49,39,73,56,36,30.31,30.00,29.88,10,10,10,29,18,37,0.00,0,,219
2012-11-23,52,40,28,39,28,22,80,56,37,30.57,30.47,30.31,10,10,10,21,13,25,0.00,0,,5
2012-11-24,61,43,25,29,26,21,82,52,29,30.44,30.19,29.95,10,10,10,26,8,33,0.00,0,,193
2012-11-25,62,48,34,40,33,26,82,55,39,29.94,29.88,29.84,10,10,10,15,8,21,0.00,0,,138
2012-11-26,50,42,32,35,30,23,86,68,41,30.43,30.13,29.86,10,10,10,30,14,38,0.00,0,,5
2012-11-27,50,36,21,31,28,21,100,76,44,30.45,30.37,30.27,10,9,4,15,7,17,0.00,0,,194
2012-11-28,62,46,31,41,35,27,90,68,43,30.34,30.25,30.12,10,10,10,17,6,25,0.00,0,,168
2012-11-29,69,58,46,48,44,40,83,66,45,30.12,30.04,29.96,10,10,10,26,14,30,0.00,0,,187
2012-11-30,68,52,37,56,49,37,100,87,58,30.07,30.00,29.92,10,8,0,12,5,,0.00,1,Fog,158